Home   Weather   Stafford   Past weeks

Flag for United Kingdom Past Weather in Stafford, England, United Kingdom — Yesterday and Last 2 Weeks

Now
45 °F

Fog.


Feels Like: 45 °F
Forecast: 40 / 58 °F
Wind: 1 mph from Northeast

Location: Shawbury

Current Time: Oct 1, 2016 at 2:43:54 AM

Latest Report: Oct 1, 2016 at 1:50 AM


Visibility: 0 mi

Pressure: 29.74 "Hg

Humidity: 93%

Dew Point: 43 °F

Location of StaffordLocation

Past Weather in Stafford — Graph

°F

Stafford Temperature Yesterday

Maximum temperature yesterday: 59 °F (at 11:50 AM)
Minimum temperature yesterday: 46 °F (at 6:50 AM)
Average temperature yesterday: 52 °F

High & Low Weather Summary for the Past Weeks

 TemperatureHumidityPressure
High72 °F (Sep 28, 1:50 PM)100% (Sep 18, 12:50 AM)30.21 "Hg (Sep 18, 12:50 AM)
Low41 °F (Sep 23, 6:50 AM)52% (Sep 22, 4:50 PM)29.71 "Hg (Sep 24, 10:50 PM)
Average57 °F80%30.04 "Hg
* Reported Sep 16 12:50 AM — Oct 1 12:50 AM, Stafford, Weather by CustomWeather, © 2016

Note: Actual official high and low records may vary slightly from our data, if they occured in-between our weather recording intervals... More about our weather records

Advertising

Stafford Weather History for the Previous 24 Hours

Scroll right to see more
 ConditionsComfort  
Time TempWeatherWind HumidityBarometerVisibility
12:50 AM
Sat, Oct 1
48 °FPassing clouds.1 mph87%29.74 "HgN/A
11:50 PM
Fri, Sep 30
50 °FPassing clouds.5 mph88%29.77 "HgN/A
10:50 PM50 °FPassing clouds.No wind88%29.77 "HgN/A
9:50 PM46 °FOvercast.1 mph93%29.77 "HgN/A
8:50 PM48 °FPassing clouds.1 mph87%29.80 "HgN/A
7:50 PM50 °FPassing clouds.2 mph82%29.80 "HgN/A
6:50 PM52 °FPassing clouds.5 mph77%29.80 "HgN/A
5:50 PM55 °FCool.9 mph72%29.80 "HgN/A
4:50 PM59 °FPartly sunny.8 mph68%29.80 "HgN/A
3:50 PM57 °FPartly sunny.9 mph77%29.80 "HgN/A
2:50 PM52 °FSprinkles. Broken clouds.12 mph88%29.80 "HgN/A
1:50 PM57 °FBroken clouds.9 mph72%29.83 "HgN/A
12:50 PM55 °FSprinkles. Partly sunny.17 mph82%29.83 "HgN/A
11:50 AM59 °FScattered clouds.14 mph63%29.83 "HgN/A
10:50 AM57 °FPassing clouds.10 mph72%29.83 "HgN/A
9:50 AM55 °FScattered clouds.12 mph77%29.83 "HgN/A
8:50 AM50 °FScattered showers. Passing clouds.6 mph88%29.83 "HgN/A
7:50 AM48 °FScattered clouds.3 mph87%29.83 "HgN/A
6:50 AM46 °FPassing clouds.3 mph93%29.83 "HgN/A
5:50 AM48 °FSprinkles. Partly cloudy.7 mph94%29.83 "HgN/A
4:50 AM50 °FPassing clouds.5 mph88%29.83 "HgN/A
3:50 AM50 °FCool.7 mph88%29.83 "HgN/A
2:50 AM50 °FPassing clouds.6 mph88%29.83 "HgN/A
Weather by CustomWeather, © 2016

See weather overviewHow to use our weather pages